Time,TemperatureF,DewpointF,PressureIn,WindDirection,WindDirectionDegrees,WindSpeedMPH,WindSpeedGustMPH,Humidity,HourlyPrecipIn,Conditions,Clouds,dailyrainin,SoftwareType,DateUTC
2013-01-29 00:01:00,18.0,16.0,29.89,WSW,250,5.0,9.0,90,0.00,,,0.07,,2013-01-29 07:01:00,
2013-01-29 00:11:00,18.0,16.0,29.89,WSW,250,5.0,9.0,90,0.00,,,0.07,,2013-01-29 07:11:00,
2013-01-29 00:21:00,19.0,16.0,29.89,WSW,240,5.0,10.0,88,0.00,,,0.07,,2013-01-29 07:21:00,
2013-01-29 00:31:00,19.0,16.0,29.89,WSW,237,4.0,7.0,87,0.00,,,0.07,,2013-01-29 07:31:00,
2013-01-29 00:41:00,19.0,16.0,29.89,WSW,237,4.0,7.0,87,0.00,,,0.07,,2013-01-29 07:41:00,
2013-01-29 00:51:00,17.0,14.0,29.89,SW,235,4.0,7.0,87,0.00,,,0.07,,2013-01-29 07:51:00,
2013-01-29 01:01:00,16.0,13.0,29.90,SW,235,3.0,7.0,86,0.00,,,0.07,,2013-01-29 08:01:00,
2013-01-29 01:11:00,16.0,13.0,29.90,SW,235,3.0,7.0,86,0.00,,,0.07,,2013-01-29 08:11:00,
2013-01-29 01:21:00,14.0,12.0,29.89,SW,235,4.0,9.0,91,0.00,,,0.07,,2013-01-29 08:21:00,
2013-01-29 01:31:00,16.0,13.0,29.89,SW,235,2.0,6.0,89,0.00,,,0.07,,2013-01-29 08:31:00,
2013-01-29 01:41:00,16.0,13.0,29.89,SW,235,2.0,6.0,89,0.00,,,0.07,,2013-01-29 08:41:00,
2013-01-29 01:52:00,13.0,10.0,29.89,SW,235,3.0,7.0,89,0.00,,,0.07,,2013-01-29 08:52:00,
2013-01-29 02:01:00,13.0,9.0,29.89,SW,235,4.0,9.0,84,0.00,,,0.07,,2013-01-29 09:01:00,
2013-01-29 02:11:00,13.0,9.0,29.89,SW,235,4.0,9.0,84,0.00,,,0.07,,2013-01-29 09:11:00,
2013-01-29 02:21:00,9.0,6.0,29.88,SW,235,2.0,6.0,88,0.00,,,0.07,,2013-01-29 09:21:00,
2013-01-29 02:31:00,9.0,6.0,29.89,SW,235,0.0,3.0,88,0.00,,,0.07,,2013-01-29 09:31:00,
2013-01-29 02:42:00,9.0,6.0,29.89,SW,235,0.0,3.0,88,0.00,,,0.07,,2013-01-29 09:42:00,
2013-01-29 02:51:00,10.0,8.0,29.89,SW,235,2.0,3.0,90,0.00,,,0.07,,2013-01-29 09:51:00,
2013-01-29 03:01:00,11.0,9.0,29.89,SW,235,3.0,6.0,91,0.00,,,0.07,,2013-01-29 10:01:00,
2013-01-29 03:11:00,11.0,9.0,29.89,SW,235,3.0,6.0,91,0.00,,,0.07,,2013-01-29 10:11:00,
2013-01-29 03:21:00,11.0,8.0,29.89,SW,235,3.0,9.0,89,0.00,,,0.07,,2013-01-29 10:21:00,
2013-01-29 03:32:00,12.0,10.0,29.88,SW,235,3.0,7.0,91,0.00,,,0.07,,2013-01-29 10:32:00,
2013-01-29 03:41:00,12.0,10.0,29.88,SW,235,3.0,7.0,91,0.00,,,0.07,,2013-01-29 10:41:00,
2013-01-29 03:51:00,12.0,9.0,29.88,SW,235,2.0,4.0,89,0.00,,,0.07,,2013-01-29 10:51:00,
2013-01-29 04:01:00,12.0,9.0,29.88,SW,235,0.0,3.0,89,0.00,,,0.07,,2013-01-29 11:01:00,
2013-01-29 04:11:00,12.0,9.0,29.88,SW,235,0.0,3.0,89,0.00,,,0.07,,2013-01-29 11:11:00,
2013-01-29 04:21:00,11.0,8.0,29.88,SW,235,1.0,3.0,87,0.00,,,0.07,,2013-01-29 11:21:00,
2013-01-29 04:31:00,11.0,8.0,29.89,SW,235,2.0,5.0,88,0.00,,,0.07,,2013-01-29 11:31:00,
2013-01-29 04:41:00,11.0,8.0,29.89,SW,235,2.0,5.0,88,0.00,,,0.07,,2013-01-29 11:41:00,
2013-01-29 04:52:00,11.0,8.0,29.89,SW,235,0.0,3.0,89,0.00,,,0.07,,2013-01-29 11:52:00,
2013-01-29 05:02:00,12.0,10.0,29.89,SW,235,3.0,8.0,91,0.00,,,0.07,,2013-01-29 12:02:00,
2013-01-29 05:12:00,12.0,10.0,29.89,SW,235,3.0,8.0,91,0.00,,,0.07,,2013-01-29 12:12:00,
2013-01-29 05:21:00,17.0,15.0,29.89,SSW,206,6.0,13.0,91,0.00,,,0.07,,2013-01-29 12:21:00,
2013-01-29 05:32:00,18.0,15.0,29.90,SSW,205,4.0,10.0,87,0.00,,,0.07,,2013-01-29 12:32:00,
2013-01-29 05:42:00,18.0,15.0,29.90,SSW,205,4.0,10.0,87,0.00,,,0.07,,2013-01-29 12:42:00,
2013-01-29 05:52:00,18.0,13.0,29.90,SSW,199,2.0,7.0,82,0.00,,,0.07,,2013-01-29 12:52:00,
2013-01-29 06:01:00,15.0,11.0,29.90,SSW,200,2.0,5.0,84,0.00,,,0.07,,2013-01-29 13:01:00,
2013-01-29 06:11:00,15.0,11.0,29.90,SSW,200,2.0,5.0,84,0.00,,,0.07,,2013-01-29 13:11:00,
2013-01-29 06:22:00,15.0,12.0,29.91,SSW,199,2.0,3.0,87,0.00,,,0.07,,2013-01-29 13:22:00,
2013-01-29 06:31:00,15.0,12.0,29.92,SSW,200,0.0,3.0,88,0.00,,,0.07,,2013-01-29 13:31:00,
2013-01-29 06:42:00,15.0,12.0,29.92,SSW,200,0.0,3.0,88,0.00,,,0.07,,2013-01-29 13:42:00,
2013-01-29 06:52:00,16.0,13.0,29.93,SSW,199,1.0,2.0,88,0.00,,,0.07,,2013-01-29 13:52:00,
2013-01-29 07:01:00,17.0,14.0,29.93,SSW,199,2.0,3.0,87,0.00,,,0.07,,2013-01-29 14:01:00,
2013-01-29 07:11:00,17.0,14.0,29.94,SSW,199,0.0,2.0,87,0.00,,,0.07,,2013-01-29 14:11:00,
2013-01-29 07:21:00,17.0,14.0,29.94,SSW,199,0.0,2.0,87,0.00,,,0.07,,2013-01-29 14:21:00,
2013-01-29 07:32:00,16.0,13.0,29.95,SSW,200,0.0,2.0,86,0.00,,,0.07,,2013-01-29 14:32:00,
2013-01-29 07:42:00,16.0,13.0,29.95,SSW,200,0.0,2.0,86,0.00,,,0.07,,2013-01-29 14:42:00,
2013-01-29 07:52:00,17.0,14.0,29.95,SSW,199,1.0,3.0,86,0.00,,,0.07,,2013-01-29 14:52:00,
2013-01-29 08:02:00,17.0,14.0,29.96,SSW,200,0.0,0.0,86,0.00,,,0.07,,2013-01-29 15:02:00,
2013-01-29 08:11:00,17.0,14.0,29.96,SSW,200,0.0,0.0,86,0.00,,,0.07,,2013-01-29 15:11:00,
2013-01-29 08:21:00,17.0,14.0,29.96,SSW,200,0.0,2.0,86,0.00,,,0.07,,2013-01-29 15:21:00,
2013-01-29 08:32:00,17.0,14.0,29.98,SSW,200,0.0,2.0,86,0.00,,,0.07,,2013-01-29 15:32:00,
2013-01-29 08:42:00,17.0,14.0,29.98,SSW,200,0.0,2.0,86,0.00,,,0.07,,2013-01-29 15:42:00,
2013-01-29 08:52:00,17.0,14.0,29.98,SSW,200,1.0,2.0,88,0.00,,,0.07,,2013-01-29 15:52:00,
2013-01-29 09:02:00,17.0,13.0,29.99,SSW,199,1.0,5.0,84,0.00,,,0.07,,2013-01-29 16:02:00,
2013-01-29 09:12:00,17.0,13.0,29.99,SSW,199,1.0,5.0,84,0.00,,,0.07,,2013-01-29 16:12:00,
2013-01-29 09:21:00,17.0,13.0,30.00,SSW,200,2.0,4.0,83,0.00,,,0.07,,2013-01-29 16:21:00,
2013-01-29 09:32:00,17.0,13.0,30.01,SSW,200,2.0,4.0,83,0.00,,,0.07,,2013-01-29 16:32:00,
2013-01-29 09:42:00,17.0,13.0,30.01,SSW,200,2.0,4.0,83,0.00,,,0.07,,2013-01-29 16:42:00,
2013-01-29 09:52:00,18.0,14.0,30.02,SSW,200,4.0,6.0,83,0.00,,,0.07,,2013-01-29 16:52:00,
2013-01-29 10:02:00,18.0,14.0,30.03,SSW,199,2.0,5.0,85,0.00,,,0.07,,2013-01-29 17:02:00,
2013-01-29 10:11:00,18.0,14.0,30.03,SSW,199,2.0,5.0,85,0.00,,,0.07,,2013-01-29 17:11:00,
2013-01-29 10:21:00,19.0,15.0,30.03,SSW,200,2.0,5.0,85,0.00,,,0.07,,2013-01-29 17:21:00,
2013-01-29 10:32:00,18.0,14.0,30.04,SSW,200,4.0,5.0,84,0.00,,,0.07,,2013-01-29 17:32:00,
2013-01-29 10:41:00,18.0,14.0,30.04,SSW,200,4.0,5.0,84,0.00,,,0.07,,2013-01-29 17:41:00,
2013-01-29 10:52:00,19.0,15.0,30.05,SSW,200,0.0,4.0,85,0.00,,,0.07,,2013-01-29 17:52:00,
2013-01-29 11:03:00,20.0,15.0,30.06,SSW,200,2.0,6.0,82,0.00,,,0.07,,2013-01-29 18:03:00,
2013-01-29 11:12:00,20.0,15.0,30.06,SSW,200,2.0,6.0,82,0.00,,,0.07,,2013-01-29 18:12:00,
2013-01-29 11:22:00,20.0,15.0,30.06,SSW,200,1.0,5.0,81,0.00,,,0.07,,2013-01-29 18:22:00,
2013-01-29 11:33:00,21.0,16.0,30.06,SSW,199,3.0,6.0,80,0.00,,,0.07,,2013-01-29 18:33:00,
2013-01-29 11:42:00,21.0,16.0,30.06,SSW,199,3.0,6.0,80,0.00,,,0.07,,2013-01-29 18:42:00,
2013-01-29 11:51:00,22.0,16.0,30.07,SSW,200,4.0,7.0,79,0.00,,,0.07,,2013-01-29 18:51:00,
2013-01-29 12:02:00,23.0,17.0,30.07,SSW,200,3.0,6.0,79,0.00,,,0.07,,2013-01-29 19:02:00,
2013-01-29 12:11:00,23.0,17.0,30.07,SSW,200,3.0,6.0,79,0.00,,,0.07,,2013-01-29 19:11:00,
2013-01-29 12:22:00,23.0,17.0,30.07,SSW,199,3.0,6.0,77,0.00,,,0.07,,2013-01-29 19:22:00,
2013-01-29 12:32:00,24.0,18.0,30.08,SSW,200,5.0,7.0,77,0.00,,,0.06,,2013-01-29 19:32:00,
2013-01-29 12:41:00,24.0,18.0,30.08,SSW,200,5.0,7.0,77,0.00,,,0.06,,2013-01-29 19:41:00,
2013-01-29 12:51:00,24.0,19.0,30.08,SSW,200,5.0,8.0,80,0.00,,,0.06,,2013-01-29 19:51:00,
2013-01-29 13:02:00,26.0,18.0,30.08,NW,308,11.0,20.0,70,0.00,,,0.06,,2013-01-29 20:02:00,
2013-01-29 13:11:00,26.0,18.0,30.08,NW,308,11.0,20.0,70,0.00,,,0.06,,2013-01-29 20:11:00,
2013-01-29 13:21:00,25.0,17.0,30.08,NW,306,12.0,20.0,71,0.00,,,0.04,,2013-01-29 20:21:00,
2013-01-29 13:32:00,26.0,19.0,30.09,North,355,4.0,15.0,73,0.00,,,0.04,,2013-01-29 20:32:00,
2013-01-29 13:41:00,26.0,19.0,30.09,North,355,4.0,15.0,73,0.00,,,0.04,,2013-01-29 20:41:00,
2013-01-29 13:53:00,27.0,21.0,30.10,ENE,75,6.0,11.0,79,0.00,,,0.04,,2013-01-29 20:53:00,
2013-01-29 14:02:00,25.0,18.0,30.11,ENE,61,10.0,23.0,74,0.00,,,0.04,,2013-01-29 21:02:00,
2013-01-29 14:11:00,25.0,18.0,30.11,ENE,61,10.0,23.0,74,0.00,,,0.04,,2013-01-29 21:11:00,
2013-01-29 14:21:00,23.0,16.0,30.12,NNE,30,10.0,18.0,75,0.00,,,0.03,,2013-01-29 21:21:00,
2013-01-29 14:33:00,22.0,15.0,30.14,ENE,67,11.0,17.0,75,0.00,,,0.03,,2013-01-29 21:33:00,
2013-01-29 14:41:00,22.0,15.0,30.14,ENE,67,11.0,17.0,75,0.00,,,0.03,,2013-01-29 21:41:00,
2013-01-29 14:52:00,22.0,15.0,30.14,NE,51,7.0,18.0,75,0.00,,,0.03,,2013-01-29 21:52:00,
2013-01-29 15:01:00,22.0,15.0,30.15,ENE,65,8.0,18.0,73,0.00,,,0.03,,2013-01-29 22:01:00,
2013-01-29 15:11:00,22.0,15.0,30.15,ENE,65,8.0,18.0,73,0.00,,,0.03,,2013-01-29 22:11:00,
2013-01-29 15:21:00,21.0,13.0,30.16,NE,38,12.0,21.0,72,0.00,,,0.02,,2013-01-29 22:21:00,
2013-01-29 15:32:00,21.0,13.0,30.17,East,80,12.0,22.0,71,0.00,,,0.02,,2013-01-29 22:32:00,
2013-01-29 15:42:00,21.0,13.0,30.17,East,80,12.0,22.0,71,0.00,,,0.02,,2013-01-29 22:42:00,
2013-01-29 15:52:00,21.0,12.0,30.19,ENE,58,11.0,19.0,69,0.00,,,0.02,,2013-01-29 22:52:00,
2013-01-29 16:02:00,21.0,12.0,30.19,ENE,58,11.0,19.0,69,0.00,,,0.02,,2013-01-29 23:02:00,
2013-01-29 16:11:00,21.0,12.0,30.19,ENE,58,11.0,19.0,69,0.00,,,0.02,,2013-01-29 23:11:00,
2013-01-29 16:22:00,21.0,12.0,30.19,ENE,58,11.0,19.0,69,0.00,,,0.02,,2013-01-29 23:22:00,
2013-01-29 16:33:00,19.0,11.0,30.21,NE,56,9.0,20.0,69,0.00,,,0.01,,2013-01-29 23:33:00,
2013-01-29 16:42:00,19.0,11.0,30.21,NE,56,9.0,20.0,69,0.00,,,0.01,,2013-01-29 23:42:00,
2013-01-29 16:53:00,19.0,10.0,30.22,ENE,57,8.0,16.0,68,0.00,,,0.01,,2013-01-29 23:53:00,
2013-01-29 17:02:00,19.0,10.0,30.22,ENE,57,8.0,16.0,68,0.00,,,0.01,,2013-01-30 00:02:00,
2013-01-29 17:11:00,19.0,10.0,30.22,ENE,57,8.0,16.0,68,0.00,,,0.01,,2013-01-30 00:11:00,
2013-01-29 17:21:00,17.0,9.0,30.24,ENE,67,8.0,14.0,71,0.00,,,0.00,,2013-01-30 00:21:00,
2013-01-29 17:32:00,16.0,8.0,30.26,NE,55,7.0,14.0,71,0.00,,,0.00,,2013-01-30 00:32:00,
2013-01-29 17:42:00,16.0,8.0,30.26,NE,55,7.0,14.0,71,0.00,,,0.00,,2013-01-30 00:42:00,
2013-01-29 17:52:00,15.0,7.0,30.27,ENE,62,4.0,12.0,71,0.00,,,0.00,,2013-01-30 00:52:00,
2013-01-29 18:01:00,15.0,7.0,30.28,ENE,57,8.0,12.0,71,0.00,,,0.00,,2013-01-30 01:01:00,
2013-01-29 18:11:00,15.0,7.0,30.28,ENE,57,8.0,12.0,71,0.00,,,0.00,,2013-01-30 01:11:00,
2013-01-29 18:22:00,15.0,8.0,30.29,NE,50,7.0,12.0,72,0.00,,,0.00,,2013-01-30 01:22:00,
2013-01-29 18:32:00,14.0,7.0,30.29,ENE,68,6.0,13.0,72,0.00,,,0.00,,2013-01-30 01:32:00,
2013-01-29 18:42:00,14.0,7.0,30.29,ENE,68,6.0,13.0,72,0.00,,,0.00,,2013-01-30 01:42:00,
2013-01-29 18:51:00,14.0,7.0,30.29,NE,43,5.0,15.0,72,0.00,,,0.00,,2013-01-30 01:51:00,
2013-01-29 19:01:00,13.0,6.0,30.30,NE,38,4.0,11.0,73,0.00,,,0.00,,2013-01-30 02:01:00,
2013-01-29 19:11:00,13.0,6.0,30.30,NE,38,4.0,11.0,73,0.00,,,0.00,,2013-01-30 02:11:00,
2013-01-29 19:21:00,12.0,5.0,30.31,NE,37,4.0,12.0,74,0.00,,,0.00,,2013-01-30 02:21:00,
2013-01-29 19:32:00,12.0,6.0,30.31,NE,34,5.0,10.0,75,0.00,,,0.00,,2013-01-30 02:32:00,
2013-01-29 19:41:00,12.0,6.0,30.31,NE,34,5.0,10.0,75,0.00,,,0.00,,2013-01-30 02:41:00,
2013-01-29 19:52:00,12.0,6.0,30.31,NE,34,3.0,8.0,75,0.00,,,0.00,,2013-01-30 02:52:00,
2013-01-29 20:02:00,12.0,6.0,30.32,NNE,24,3.0,6.0,76,0.00,,,0.00,,2013-01-30 03:02:00,
2013-01-29 20:11:00,12.0,6.0,30.32,NNE,24,3.0,6.0,76,0.00,,,0.00,,2013-01-30 03:11:00,
2013-01-29 20:21:00,12.0,6.0,30.32,North,5,2.0,7.0,75,0.00,,,0.00,,2013-01-30 03:21:00,
2013-01-29 20:31:00,11.0,5.0,30.33,North,5,0.0,4.0,75,0.00,,,0.00,,2013-01-30 03:31:00,
2013-01-29 20:41:00,11.0,5.0,30.33,North,5,0.0,4.0,75,0.00,,,0.00,,2013-01-30 03:41:00,
2013-01-29 20:51:00,11.0,5.0,30.33,North,5,0.0,3.0,76,0.00,,,0.00,,2013-01-30 03:51:00,
2013-01-29 21:01:00,9.0,3.0,30.33,North,5,2.0,5.0,76,0.00,,,0.00,,2013-01-30 04:01:00,
2013-01-29 21:11:00,9.0,3.0,30.33,North,5,2.0,5.0,76,0.00,,,0.00,,2013-01-30 04:11:00,
2013-01-29 21:21:00,7.0,2.0,30.32,North,5,0.0,4.0,78,0.00,,,0.00,,2013-01-30 04:21:00,
2013-01-29 21:32:00,7.0,2.0,30.32,North,5,0.0,2.0,80,0.00,,,0.00,,2013-01-30 04:32:00,
2013-01-29 21:41:00,7.0,2.0,30.32,North,5,0.0,2.0,80,0.00,,,0.00,,2013-01-30 04:41:00,
2013-01-29 21:52:00,6.0,1.0,30.31,North,5,0.0,3.0,81,0.00,,,0.00,,2013-01-30 04:52:00,
2013-01-29 22:03:00,5.0,1.0,30.32,North,5,1.0,2.0,82,0.00,,,0.00,,2013-01-30 05:03:00,
2013-01-29 22:11:00,5.0,1.0,30.32,North,5,1.0,2.0,82,0.00,,,0.00,,2013-01-30 05:11:00,
2013-01-29 22:22:00,5.0,1.0,30.31,North,5,0.0,1.0,82,0.00,,,0.00,,2013-01-30 05:22:00,
2013-01-29 22:31:00,4.0,0.0,30.30,North,5,0.0,2.0,83,0.00,,,0.00,,2013-01-30 05:31:00,
2013-01-29 22:42:00,4.0,0.0,30.30,North,5,0.0,2.0,83,0.00,,,0.00,,2013-01-30 05:42:00,
2013-01-29 22:52:00,4.0,0.0,30.30,North,5,0.0,0.0,84,0.00,,,0.00,,2013-01-30 05:52:00,
2013-01-29 23:02:00,5.0,1.0,30.30,North,5,0.0,1.0,84,0.00,,,0.00,,2013-01-30 06:02:00,
2013-01-29 23:11:00,5.0,1.0,30.30,North,5,0.0,1.0,84,0.00,,,0.00,,2013-01-30 06:11:00,
2013-01-29 23:21:00,5.0,1.0,30.29,North,5,0.0,3.0,84,0.00,,,0.00,,2013-01-30 06:21:00,
2013-01-29 23:31:00,6.0,2.0,30.29,North,5,0.0,4.0,83,0.00,,,0.00,,2013-01-30 06:31:00,
2013-01-29 23:41:00,6.0,2.0,30.29,North,5,0.0,4.0,83,0.00,,,0.00,,2013-01-30 06:41:00,
2013-01-29 23:52:00,7.0,3.0,30.29,North,5,0.0,0.0,83,0.00,,,0.00,,2013-01-30 06:52:00,